[[{"header":{"parameterUnit":"m.s-1","parameterCategory":1,"la1":30.2991,"la2":30.254,"lo1":-89.0895,"lo2":-89.0444,"dy":0.0017,"dx":0.0017,"nx":28,"ny":28,"refTime":"2024-06-02T03:00:00:Z","depth":0,"parameterNumber":2,"parameterNumberName":"U-component_of_WINDS"},"data":[0,0,0,0,0,0,0,0,0,0,0,0,0,0,0,0,0,0,0,0,0,0,0,0,0,0,0,0,0,0,0,0,0,0,0,0,0,0,0,0,0,0,0,0,0,0,0,0,0,0,0,0,0,0,0,0,0,0,-1.2865,-1.2865,0,-1.2802,-1.2802,-1.2801,-1.2734,-1.2733,-1.2732,-1.2731,-1.2667,-1.2666,-1.2665,0,0,0,0,0,0,0,0,0,0,0,0,0,-1.293,-1.2929,-1.2865,-1.2865,-1.2864,-1.2802,-1.2802,-1.2801,-1.2734,-1.2733,-1.2732,-1.273,-1.2667,-1.2666,-1.2665,0,0,0,0,0,0,0,0,0,0,0,0,0,-1.2888,-1.2928,-1.2866,-1.2823,-1.2819,-1.2803,-1.2802,-1.28,-1.2734,-1.2733,-1.2731,-1.273,-1.2668,-1.2666,-1.2665,-1.2686,0,0,-1.2662,-1.2661,0,0,0,0,0,0,0,0,-1.289,-1.2885,-1.283,-1.2826,-1.2821,-1.2774,-1.2801,-1.2762,-1.2734,-1.2766,-1.2731,-1.2729,-1.2704,-1.27,-1.2691,-1.2683,-1.2681,-1.2661,-1.2661,-1.266,-1.266,0,0,0,0,0,0,0,-1.2893,-1.2888,-1.284,-1.2829,-1.2824,-1.2808,-1.28,-1.2793,-1.2744,-1.2763,-1.2758,-1.2752,-1.2701,-1.2692,-1.2689,-1.268,-1.2661,-1.266,-1.266,-1.2659,-1.2687,-1.2689,0,0,0,0,0,0,-1.2902,-1.2891,-1.2842,-1.2839,-1.2853,-1.2808,-1.2799,-1.2791,-1.2744,-1.2735,-1.2753,-1.2749,-1.2695,-1.2691,-1.2687,-1.2708,-1.266,-1.2659,-1.2658,-1.2686,-1.2687,-1.2689,0,0,0,0,0,0,-1.2904,-1.2899,-1.2845,-1.2863,-1.2855,-1.2808,-1.2799,-1.279,-1.2781,-1.2736,-1.2727,-1.2753,-1.2694,-1.2688,-1.2687,-1.2705,-1.2658,-1.2657,-1.2684,-1.2686,-1.2688,-1.2752,0,0,0,0,0,0,-1.2906,-1.29,-1.2907,-1.2864,-1.2854,-1.2846,-1.28,-1.279,-1.2779,-1.2773,-1.2733,-1.2725,-1.2692,-1.2689,-1.2686,-1.2703,-1.2656,-1.2682,-1.2685,-1.2688,-1.2748,-1.2756,-1.2763,0,0,0,0,0,-1.2909,-1.2927,-1.2907,-1.2902,-1.2862,-1.2847,-1.2842,-1.2803,-1.2781,-1.2788,-1.2759,-1.2727,-1.2704,-1.269,-1.2685,-1.2702,-1.2681,-1.2684,-1.2687,-1.2745,-1.2755,-1.2763,0,0,0,0,0,0,-1.2973,-1.2921,-1.2898,-1.2903,-1.288,-1.2836,-1.2843,-1.2815,-1.2798,-1.2793,-1.2746,-1.2737,-1.2742,-1.2722,-1.2707,-1.272,-1.2688,-1.269,-1.2733,-1.2742,-1.2749,-1.2754,-1.2655,0,0,0,0,0,-1.2988,-1.298,-1.2935,-1.2944,-1.2933,-1.2891,-1.2883,-1.2855,-1.2829,-1.2819,-1.279,-1.2767,-1.2755,-1.2747,-1.2733,-1.2745,-1.2736,-1.2755,-1.2762,-1.2769,-1.2771,-1.2777,-1.2785,-1.27,-1.27,-1.27,0,0,-1.3018,-1.2989,-1.2987,-1.2956,-1.2935,-1.2928,-1.2883,-1.2877,-1.2872,-1.2819,-1.2815,-1.2794,-1.2765,-1.2771,-1.2772,-1.2754,-1.2793,-1.2773,-1.2778,-1.2777,-1.2781,-1.2789,-1.2796,-1.2702,-1.2702,-1.2701,0,0,-1.307,-1.3047,-1.3052,-1.3032,-1.3001,-1.2973,-1.2974,-1.2935,-1.2918,-1.2914,-1.2874,-1.2868,-1.2847,-1.2828,-1.2816,-1.2863,-1.2833,-1.286,-1.2899,-1.2905,-1.2912,-1.2917,-1.2934,-1.2941,-1.2863,-1.2863,-1.2863,0,-1.3112,-1.31,-1.3058,-1.3056,-1.3044,-1.2995,-1.3001,-1.2983,-1.295,-1.2943,-1.2924,-1.2898,-1.2875,-1.2876,-1.2887,-1.2879,-1.288,-1.2864,-1.2914,-1.2919,-1.2924,-1.2939,-1.2946,-1.2867,-1.2866,-1.2866,-1.2866,0,-1.3153,-1.3145,-1.3153,-1.3122,-1.3111,-1.3112,-1.3072,-1.3066,-1.304,-1.3014,-1.3011,-1.2983,-1.2962,-1.2961,-1.2935,-1.2958,-1.2948,-1.2923,-1.2889,-1.2936,-1.295,-1.2956,-1.2872,-1.287,-1.2869,-1.2869,0,0,-1.3242,-1.3189,-1.3192,-1.3178,-1.3141,-1.3134,-1.3134,-1.3114,-1.311,-1.3089,-1.3088,-1.3073,-1.3049,-1.3035,-1.3007,-1.3012,-1.3052,-1.2986,-1.2984,-1.2999,-1.3076,-1.3096,-1.3103,-1.3032,-1.3033,-1.3034,-1.3079,0,-1.3287,-1.3283,-1.3247,-1.3253,-1.3246,-1.3201,-1.3201,-1.3178,-1.3155,-1.3146,-1.312,-1.311,-1.3079,-1.307,-1.3074,-1.3046,-1.3067,-1.3043,-1.3031,-1.3031,-1.3038,-1.311,-1.313,-1.3174,-1.3084,-1.3085,-1.3085,0,-1.3339,-1.3321,-1.3327,-1.329,-1.3286,-1.3286,-1.3266,-1.3257,-1.3232,-1.3214,-1.32,-1.3169,-1.3167,-1.3136,-1.3133,-1.3117,-1.3111,-1.3097,-1.3098,-1.3094,-1.306,-1.3108,-1.3187,-1.3193,-1.3093,-1.3093,-1.3092,0,-1.3403,-1.3381,-1.3381,-1.337,-1.3328,-1.3329,-1.3312,-1.3285,-1.3276,-1.3258,-1.3252,-1.3234,-1.3225,-1.3213,-1.3178,-1.3158,-1.3179,-1.3145,-1.3165,-1.3166,-1.317,-1.317,-1.3248,-1.3167,-1.3167,-1.3167,-1.3167,0,-1.3457,-1.3462,-1.341,-1.341,-1.3415,-1.3374,-1.338,-1.3358,-1.3335,-1.3331,-1.3292,-1.3289,-1.3243,-1.3236,-1.3209,-1.321,-1.3207,-1.3193,-1.3185,-1.3196,-1.3198,-1.319,-1.3186,-1.3168,-1.3168,-1.3168,-1.3167,0,-1.3529,-1.3494,-1.3492,-1.3452,-1.3443,-1.3448,-1.3414,-1.3413,-1.3388,-1.3384,-1.338,-1.334,-1.3329,-1.3294,-1.3274,-1.3256,-1.3266,-1.3252,-1.3275,-1.327,-1.3291,-1.329,-1.3366,-1.3375,-1.3289,-1.329,-1.3291,0,-1.3565,-1.3568,-1.3529,-1.3524,-1.3508,-1.3499,-1.349,-1.345,-1.3442,-1.3414,-1.3417,-1.3403,-1.3389,-1.3374,-1.3343,-1.3329,-1.3314,-1.3342,-1.3311,-1.3322,-1.3314,-1.3314,-1.3314,-1.3348,-1.3349,-1.335,-1.3351,0,-1.3633,-1.3616,-1.3604,-1.3586,-1.3576,-1.3559,-1.3541,-1.3539,-1.3495,-1.3488,-1.3476,-1.3466,-1.3446,-1.3433,-1.3413,-1.3396,-1.3366,-1.3361,-1.3365,-1.3375,-1.3388,-1.3381,-1.3292,-1.3359,-1.3358,-1.3358,-1.3357,-1.3357,-1.3688,-1.3689,-1.3662,-1.365,-1.3632,-1.3616,-1.3614,-1.3588,-1.3578,-1.3558,-1.3536,-1.3527,-1.3502,-1.3473,-1.3458,-1.3451,-1.3435,-1.344,-1.3441,-1.3443,-1.3448,-1.339,-1.3447,-1.3447,-1.3447,-1.3447,-1.3446,0,-1.3754,-1.3735,-1.3724,-1.37,-1.3691,-1.3664,-1.3643,-1.3637,-1.363,-1.3609,-1.3597,-1.3584,-1.3571,-1.3541,-1.3525,-1.3526,-1.3512,-1.3523,-1.3522,-1.3519,-1.3464,-1.3462,-1.3534,-1.3534,-1.3534,-1.3534,-1.3534,-1.3534,-1.3787,-1.3787,-1.3767,-1.3759,-1.3739,-1.373,-1.372,-1.3706,-1.3689,-1.3677,-1.3666,-1.3646,-1.3622,-1.3604,-1.3592,-1.3583,-1.358,-1.3595,-1.3582,-1.3531,-1.3523,-1.3515,-1.3513,-1.3595,-1.3595,-1.3638,-1.3638,-1.3638]},{"header":{"parameterUnit":"m.s-1","parameterCategory":1,"la1":30.2991,"la2":30.254,"lo1":-89.0895,"lo2":-89.0444,"dy":0.0017,"dx":0.0017,"nx":28,"ny":28,"refTime":"2024-06-02T03:00:00:Z","depth":0,"parameterNumber":3,"parameterNumberName":"V-component_of_WINDS"},"data":[0,0,0,0,0,0,0,0,0,0,0,0,0,0,0,0,0,0,0,0,0,0,0,0,0,0,0,0,0,0,0,0,0,0,0,0,0,0,0,0,0,0,0,0,0,0,0,0,0,0,0,0,0,0,0,0,0,0,3.6365,3.6365,0,3.6336,3.6336,3.6335,3.6357,3.6358,3.6359,3.6359,3.6325,3.6323,3.6321,0,0,0,0,0,0,0,0,0,0,0,0,0,3.6436,3.6435,3.6365,3.6365,3.6364,3.6336,3.6335,3.6335,3.6356,3.6358,3.6359,3.636,3.6325,3.6323,3.6321,0,0,0,0,0,0,0,0,0,0,0,0,0,3.6406,3.6435,3.6365,3.6372,3.6372,3.6336,3.6335,3.6335,3.6356,3.6358,3.6359,3.636,3.6326,3.6323,3.6321,3.6275,0,0,3.6312,3.6311,0,0,0,0,0,0,0,0,3.6408,3.6403,3.6371,3.6371,3.6372,3.6352,3.6348,3.6315,3.6356,3.6362,3.6359,3.6361,3.6332,3.6329,3.632,3.6273,3.6272,3.6312,3.631,3.6309,3.6308,0,0,0,0,0,0,0,3.641,3.6405,3.6353,3.6371,3.6371,3.6375,3.6372,3.6342,3.6339,3.6362,3.6363,3.636,3.6332,3.6323,3.6319,3.6271,3.6312,3.631,3.6308,3.6307,3.6187,3.6185,0,0,0,0,0,0,3.6412,3.6406,3.6354,3.6353,3.6394,3.6373,3.637,3.6356,3.634,3.6339,3.6358,3.6361,3.6327,3.6323,3.6318,3.6265,3.6309,3.6307,3.6305,3.6188,3.6187,3.6185,0,0,0,0,0,0,3.6413,3.6407,3.6356,3.638,3.6374,3.637,3.6355,3.6355,3.6345,3.6337,3.6337,3.6349,3.6328,3.6322,3.6286,3.6264,3.6305,3.6303,3.619,3.6188,3.6186,3.6156,0,0,0,0,0,0,3.6415,3.6407,3.6391,3.6379,3.6372,3.6325,3.6353,3.6353,3.6341,3.6344,3.6328,3.6327,3.6328,3.629,3.6284,3.6261,3.6301,3.6192,3.6189,3.6186,3.6159,3.6153,3.6148,0,0,0,0,0,3.6418,3.6382,3.639,3.6383,3.6352,3.6323,3.6319,3.6323,3.6339,3.6322,3.6317,3.6328,3.6267,3.6286,3.6279,3.6255,3.6194,3.619,3.6187,3.6161,3.6154,3.6148,0,0,0,0,0,0,3.6389,3.6381,3.6389,3.6349,3.6337,3.6327,3.6305,3.6315,3.6296,3.6299,3.6303,3.6299,3.6262,3.6255,3.6276,3.621,3.6233,3.6228,3.6216,3.6209,3.6204,3.6206,3.6299,0,0,0,0,0,3.6378,3.6357,3.6351,3.6316,3.631,3.6309,3.6296,3.6301,3.6288,3.6282,3.6274,3.626,3.6238,3.6223,3.6203,3.6158,3.6155,3.6138,3.6133,3.6128,3.6123,3.61,3.6093,3.6173,3.6173,3.6173,0,0,3.6355,3.6348,3.6334,3.631,3.6301,3.6279,3.6304,3.6279,3.6262,3.6278,3.6244,3.6238,3.6222,3.6182,3.6164,3.6175,3.6101,3.6124,3.612,3.6118,3.6096,3.6088,3.6082,3.6171,3.6171,3.6172,0,0,3.6301,3.6294,3.6265,3.6256,3.6244,3.6243,3.6236,3.6226,3.6223,3.6189,3.6201,3.6181,3.6142,3.6131,3.6121,3.6065,3.6074,3.6058,3.6029,3.6006,3.6,3.5994,3.5974,3.5967,3.6054,3.6054,3.6054,0,3.6274,3.6242,3.6248,3.6223,3.6212,3.6228,3.6198,3.6189,3.6169,3.616,3.6174,3.6127,3.6118,3.6076,3.6063,3.6053,3.6045,3.6059,3.6,3.5995,3.599,3.5971,3.5963,3.6052,3.6052,3.6052,3.6052,0,3.6208,3.6186,3.6164,3.6147,3.6133,3.6106,3.6108,3.6093,3.6099,3.6097,3.6063,3.6053,3.6031,3.6021,3.6025,3.598,3.5987,3.6,3.6023,3.598,3.5962,3.5955,3.6049,3.605,3.605,3.6051,0,0,3.6134,3.6123,3.6115,3.6108,3.6096,3.6078,3.6051,3.6031,3.6019,3.6005,3.5982,3.5951,3.5964,3.5951,3.5955,3.5935,3.5892,3.5951,3.595,3.594,3.5842,3.5832,3.5824,3.5899,3.5898,3.5896,3.5843,0,3.608,3.6035,3.6042,3.5998,3.5977,3.5993,3.5969,3.5959,3.5957,3.5938,3.5936,3.5914,3.5932,3.5925,3.5906,3.5902,3.5873,3.5905,3.5877,3.5876,3.588,3.5815,3.5804,3.5754,3.5837,3.5835,3.5835,0,3.6011,3.5997,3.5952,3.5945,3.5936,3.5915,3.5899,3.5881,3.5869,3.5869,3.5857,3.5864,3.5837,3.5861,3.5823,3.5845,3.5834,3.583,3.5829,3.5825,3.5852,3.581,3.5738,3.5731,3.5824,3.5825,3.5825,0,3.5962,3.5932,3.5901,3.5895,3.5885,3.587,3.5865,3.5855,3.5844,3.5829,3.5821,3.5802,3.5792,3.5777,3.5779,3.5796,3.574,3.5764,3.5739,3.5739,3.5725,3.5726,3.5651,3.5719,3.5719,3.5719,3.5719,0,3.5901,3.5873,3.5879,3.586,3.5829,3.5836,3.5805,3.5802,3.5793,3.5774,3.5785,3.5766,3.577,3.5751,3.5752,3.5721,3.5716,3.5715,3.5715,3.5713,3.5713,3.5705,3.5709,3.5717,3.5717,3.5718,3.5718,0,3.584,3.5843,3.5811,3.5806,3.5804,3.5781,3.5776,3.5758,3.5758,3.5732,3.5727,3.5726,3.5704,3.5705,3.568,3.5681,3.5642,3.5647,3.5646,3.5647,3.5622,3.5624,3.5539,3.5528,3.5603,3.5602,3.5601,0,3.5801,3.578,3.5773,3.5761,3.5756,3.5737,3.5726,3.5732,3.572,3.5707,3.569,3.567,3.5654,3.5618,3.5615,3.5595,3.56,3.5571,3.5597,3.5596,3.5599,3.56,3.5598,3.5566,3.5565,3.5564,3.5564,0,3.5731,3.5734,3.5718,3.5703,3.569,3.5678,3.5667,3.5657,3.5662,3.5648,3.5627,3.5615,3.559,3.557,3.5552,3.5546,3.5555,3.5556,3.5549,3.5547,3.5548,3.5547,3.5633,3.5558,3.5558,3.5559,3.5559,3.5559,3.568,3.5662,3.5655,3.5637,3.563,3.5621,3.5604,3.5603,3.5586,3.5567,3.5572,3.5548,3.5538,3.5516,3.5508,3.5489,3.5499,3.5489,3.5486,3.5484,3.5481,3.5551,3.5486,3.5486,3.5486,3.5486,3.5486,0,3.561,3.5607,3.5591,3.5577,3.5563,3.5575,3.5564,3.5551,3.5531,3.5522,3.5507,3.5483,3.5464,3.5459,3.5441,3.5426,3.543,3.5421,3.5422,3.5421,3.5473,3.5481,3.5418,3.5419,3.5419,3.5419,3.5419,3.5419,3.5573,3.5544,3.5547,3.5515,3.5512,3.549,3.5483,3.5474,3.5466,3.544,3.5425,3.5423,3.5415,3.5397,3.538,3.5379,3.5371,3.536,3.5361,3.541,3.5417,3.5423,3.5431,3.5359,3.5359,3.5311,3.531,3.531]}]]